LMRST-SAT

Last updated on Sun Dec 14 2025 00:03:49 GMT+0000 (Coordinated Universal Time)

1 40971U 15058H 25346.71786196 .00006702 00000+0 60485-3 0 9995 2 40971 64.7751 133.9141 0137344 131.8056 229.4885 14.89312833 85778
UTC large
Height (km)
Speed (km/s)
/
Latitude / Longitude
Inclination (degrees)
Orbital Period (minutes)
Azimuth
Elevation
Range (km)
Doppler Factor

Next 0 passes for location: London (51.5072 / 0.1276)

Sorry there are no passes over London.